Regional Weather Roundup
Issued by NWS

Home | Current Version | Previous Version | Graphics & Text | Print | Product List | Glossary On
Versions: 1 2 3 4 5 6 7 8 9 10 11 12 13 14 15 16 17 18 19 20 21 22 23 24 25 26 27 28 29 30 31 32 33 34 35 36 37 38 39 40 41 42 43 44 45 46 47 48 49 50
000
ASUS43 KMPX 202210
RWRMN
WEATHER ROUNDUP FOR MINNESOTA
NATIONAL WEATHER SERVICE TWIN CITIES/CHANHASSEN MN
400 PM CST SAT JAN 20 2018


NOTE: "FAIR" INDICATES FEW OR NO CLOUDS BELOW 12,000 FEET WITH NO
SIGNIFICANT WEATHER AND/OR OBSTRUCTIONS TO VISIBILITY. N/A MEANS
CURRENT SKY AND/OR WEATHER CONDITIONS ARE NOT AVAILABLE.

MNZ060>063-068>070-202300-
   Twin Cities Metro

CITY           SKY/WX    TMP DP  RH WIND       PRES   REMARKS
TWIN CITIES    FAIR      42  33  70 SW3       29.89R
ST PAUL        CLOUDY    40  33  76 CALM      29.90R
CRYSTAL        CLOUDY    41  29  62 W6        29.88R
BLAINE         CLOUDY    43  34  70 SW3       29.88R
LAKEVILLE      FAIR      39  32  75 CALM      29.89R
EDEN PRAIRIE   CLOUDY    42  32  67 SW3       29.87S
SOUTH ST PAUL  MOCLDY    40  32  71 CALM      29.89R
LAKE ELMO      CLOUDY    37  32  81 S3        29.89R
$$
MNZ001>005-007-008-013>017-022>024-027-028-202300-
   Northwest Minnesota

CITY           SKY/WX    TMP DP  RH WIND       PRES   REMARKS
BEMIDJI        FAIR      34  26  72 W7        29.81R WCI  28
HALLOCK        FAIR      28  27  93 S7        29.81R WCI  21
ROSEAU         FAIR      34  27  75 SW6       29.80R WCI  29
WARROAD        FAIR      36  28  75 SW5       29.80R
THIEF RVR FALL FAIR      31  25  78 SW6       29.83R WCI  25
CROOKSTON      FAIR      30  28  93 SW5       29.84R WCI  25
FOSSTON        FAIR      34  27  75 SW9       29.84R WCI  26
DETROIT LAKES  FAIR      36  30  80 W6        29.87R
MOORHEAD       FAIR      37  30  75 SW3       29.88R
PARK RAPIDS    FAIR      34  26  72 NW9       29.83R WCI  27
MAHNOMEN       FAIR      33  28  85 SW5       29.84R WCI  28
$$
MNZ006-009>011-018-025>026-202300-
   North Central Minnesota

CITY           SKY/WX    TMP DP  RH WIND       PRES   REMARKS
BAUDETTE       FAIR      37  27  67 SW5       29.78R
FLAG ISLAND    FAIR      27  25  93 S7        29.77R WCI  19
INTL FALLS     FAIR      37  27  67 VRB3      29.79R
WASKISH        FAIR      32  27  80 W5        29.81R WCI  27
BIG FORK       FAIR      37  27  65 SW3       29.80R
LONGVILLE      FAIR      36  27  69 SW7       29.83R
GRAND RAPIDS   FAIR      37  27  67 NW3       29.84R
CRANE LAKE     FAIR      37  28  70 CALM      29.82R
ORR            FAIR      37  27  65 CALM      29.78R
COOK           CLOUDY    37  28  70 CALM      29.81R
WALKER         FAIR      36  26  66 W6        29.83R
$$
MNZ012-019>021-037-202300-
   Northeast Minnesota

CITY           SKY/WX    TMP DP  RH WIND       PRES   REMARKS
DULUTH         MOCLDY    41  29  62 W8        29.82R
ELY            FAIR      36  28  75 W5        29.80R
HIBBING        MOCLDY    37  27  67 SW3       29.81R
EVELETH        FAIR      35  26  69 SW3       29.82R
DULUTH HARBOR  FAIR      39  30  70 SW7       29.85R
TWO HARBORS    FAIR      45  32  61 S3        29.80R
SILVER BAY     FAIR      39  30  70 CALM      29.80R
GRAND MARAIS     N/A     36  34  92 SW9       29.83R
G MARAIS ARPRT FAIR      36  25  64 CALM      29.79R
$$
MNZ029>031-032-039>041-046>048-054>057-064-202300-
   West Central Minnesota

CITY           SKY/WX    TMP DP  RH WIND       PRES   REMARKS
FERGUS FALLS   FAIR      37  32  81 CALM      29.87R
WHEATON        CLOUDY    45  28  53 NW5       29.90S
MORRIS         CLOUDY    45  32  61 NW8       29.88R
ALEXANDRIA     FAIR      40  30  67 W10       29.88R
ELBOW LAKE     FAIR      37  32  81 NW3       29.88S
WADENA         FAIR      37  27  65 W6        29.85R
GLENWOOD       FAIR      39  30  70 W7        29.89R
APPLETON       CLOUDY    45  32  61 W3        29.89R
BENSON         CLOUDY    43  34  70 NW3       29.91R
ORTONVILLE     CLOUDY    45  28  53 CALM      29.89R
MADISON        CLOUDY    46  30  53 NW5       29.89S
WILLMAR        MOCLDY    39  30  70 NW6       29.92R
$$
MNZ033>034-036-042>043-049>051-058-059-202300-
   Central Minnesota

CITY           SKY/WX    TMP DP  RH WIND       PRES   REMARKS
ST CLOUD       FAIR      38  30  73 NW6       29.88R
SAUK CENTRE      N/A     38  32  78 W5        29.88R
PAYNESVILLE    CLOUDY    38  32  79 W6        29.89S
AITKIN         FAIR      37  27  65 SW7       29.83S
PINE RIVER     FAIR      36  27  69 SW3       29.88R
BRAINERD       FAIR      39  27  62 W9        29.85R
STAPLES        FAIR      37  27  65 W9        29.86R
LONG PRAIRIE   FAIR      39  28  65 SW7       29.88R
LITTLE FALLS   FAIR      37  27  65 S3        29.88R
LITCHFIELD     CLOUDY    41  32  70 CALM      29.89S
BUFFALO        CLOUDY    39  32  75 SW3       29.89R
MAPLE LAKE     CLOUDY    40  32  73 MISG      29.89R
HUTCHINSON     CLOUDY    42  33  70 W5        29.90R
$$
MNZ037-044-045-052-053-202300-
   East Central Minnesota

CITY           SKY/WX    TMP DP  RH WIND       PRES   REMARKS
PRINCETON      FAIR      39  30  70 W5        29.88R
MORA           FAIR      37  28  70 SW5       29.88R
CAMBRIDGE        N/A     41  30  65 CALM      29.88R
RUSH CITY      FAIR      38  31  74 CALM      29.87S
MOOSE LAKE     FAIR      43  28  56 SW6       29.83R
HINCKLEY       FAIR      39  32  75 SW7       29.86S
CLOQUET        FAIR      41  27  56 W5        29.83R
MCGREGOR       FAIR      41  30  65 SW5       29.84R
$$
MNZ071>073-080-081-089-090-097-098-202300-
   Southwest Minnesota

CITY           SKY/WX    TMP DP  RH WIND       PRES   REMARKS
MONTEVIDEO     CLOUDY    45  30  57 N3        29.89R
GRANITE FALLS  CLOUDY    46  31  57 NW6       29.90S
CANBY          CLOUDY    46  27  48 NW6       29.90R
MARSHALL       MOSUNNY   46  29  51 N8        29.89R
REDWOOD FALLS  CLOUDY    45  30  55 NW6       29.88R
OLIVIA         CLOUDY    43  30  61 NW5       29.89R
PIPESTONE      CLOUDY    39  34  81 CALM      29.87S
WINDOM         CLOUDY    43  25  49 CALM      29.89R
WORTHINGTON    MOSUNNY   43  34  70 N8        29.88R
JACKSON        CLOUDY    43  34  70 VRB3      29.88R
TRACY          MOSUNNY   46  32  56 N3        29.88R
SLAYTON        PTSUNNY   42  33  69 NW3       29.89R
$$
MNZ065>067-074>077-082>085-091>093-202300-
   South Central Minnesota

CITY           SKY/WX    TMP DP  RH WIND       PRES   REMARKS
MANKATO        FAIR      42  32  67 NW3       29.89R
NEW ULM        CLOUDY    45  30  57 CALM      29.88S
ST JAMES       PTCLDY    43  34  70 CALM      29.90R
FAIRMONT       MOSUNNY   42  35  76 N8        29.88S
FARIBAULT      FAIR      39  32  75 CALM      29.89S
OWATONNA       FAIR      37  34  87 CALM      29.89R
WASECA         FAIR      37  32  81 CALM      29.90R
ALBERT LEA     FAIR      41  34  75 CALM      29.87S
$$
MNZ078>079-086>088-094>096-202300-
   Southeast Minnesota

CITY           SKY/WX    TMP DP  RH WIND       PRES   REMARKS
ROCHESTER      FAIR      40  35  83 CALM      29.87S
RED WING       FAIR      36  28  75 CALM      29.89S
STANTON        FAIR      39  33  78 CALM      29.88S
DODGE CENTER   FAIR      37  34  87 CALM      29.88R
WINONA         FAIR      39  32  75 CALM      29.89R
PRESTON        FAIR      40  32  72 CALM      29.88R
$$
ABBREVIATIONS USED IN REMARKS
   TC - TEMPERATURES IN CELSIUS
  WCI - WIND CHILL INDEX
   HX - HEAT INDEX
  VSB - VISIBILITY
$$




USA.gov is the U.S. government's official web portal to all federal, state and local government web resources and services.